This is the latest recevied weather packets stored in our database for station/object N3FAA. If no packets are shown the sender has not sent any weather packets the latest 10 day(s).
| Time | Temp. | Humidity | Pressure | Rain* | Wind** | Luminosity | Snow |
|---|---|---|---|---|---|---|---|
| 1777762587 | 28.89° C | 22% | 1008.1 hPa | 0 mm | - | 625 W/m² | - |
| 1777762285 | 29.44° C | 22% | 1008.5 hPa | 0 mm | - | 620 W/m² | - |
| 1777761981 | 28.89° C | 22% | 1008.5 hPa | 0 mm | - | 576 W/m² | - |
| 1777761678 | 29.44° C | 23% | 1008.5 hPa | 0 mm | - | 529 W/m² | - |
| 1777761376 | 29.44° C | 21% | 1008.5 hPa | 0 mm | - | 587 W/m² | - |
| 1777761074 | 28.89° C | 21% | 1008.9 hPa | 0 mm | - | 627 W/m² | - |
| 1777760771 | 28.89° C | 22% | 1008.7 hPa | 0 mm | - | 635 W/m² | - |
| 1777760467 | 28.89° C | 22% | 1008.9 hPa | 0 mm | - | 614 W/m² | - |
| 1777760163 | 30° C | 22% | 1009 hPa | 0 mm | - | 636 W/m² | - |
| 1777759861 | 29.44° C | 22% | 1008.9 hPa | 0 mm | - | 645 W/m² | - |
| 1777759556 | 29.44° C | 22% | 1008.8 hPa | 0 mm | - | 640 W/m² | - |
| 1777759253 | 29.44° C | 21% | 1009 hPa | 0 mm | - | 636 W/m² | - |
| 1777758950 | 29.44° C | 21% | 1009.2 hPa | 0 mm | - | 628 W/m² | - |
| 1777758647 | 29.44° C | 21% | 1009.3 hPa | 0 mm | - | 632 W/m² | - |
| 1777758344 | 28.89° C | 20% | 1009.4 hPa | 0 mm | - | 636 W/m² | - |
| 1777758041 | 29.44° C | 21% | 1009.4 hPa | 0 mm | - | 673 W/m² | - |
| 1777757738 | 29.44° C | 20% | 1009.5 hPa | 0 mm | - | 660 W/m² | - |
| 1777757436 | 29.44° C | 20% | 1009.5 hPa | 0 mm | - | 686 W/m² | - |
| 1777757134 | 29.44° C | 20% | 1009.4 hPa | 0 mm | - | 489 W/m² | - |
| 1777756832 | 30° C | 19% | 1009.8 hPa | 0 mm | - | 707 W/m² | - |
| 1777756527 | 29.44° C | 20% | 1009.5 hPa | 0 mm | - | 671 W/m² | - |
| 1777756225 | 29.44° C | 20% | 1009.8 hPa | 0 mm | - | 605 W/m² | - |
| 1777755921 | 29.44° C | 19% | 1009.6 hPa | 0 mm | - | 689 W/m² | - |
| 1777755619 | 29.44° C | 19% | 1009.8 hPa | 0 mm | - | 665 W/m² | - |
| 1777755315 | 29.44° C | 19% | 1009.8 hPa | 0 mm | - | 724 W/m² | - |
* Rain latest hour (hover to see other rain measurements)
** Current wind speed in m/s (hover to see current wind gust speed)